Medicine Hat, Alberta

6:48 AM MDT on May 24, 2017 (GMT -0600)
Medicine Hat

Weather History for CYXH - February, 2013

Change the Weather History Date:

Saturday, February 2, 2013

  Actual Average Record
Temperature  
Mean Temperature 2 °F -  
Max Temperature 37 °F 31 °F 55 °F (2005)
Min Temperature -32 °F 10 °F -41 °F (2015)
Degree Days  
Heating Degree Days 62    
Moisture  
Dew Point 19 °F    
Average Humidity 75    
Maximum Humidity 87    
Minimum Humidity 53    
Precipitation  
Precipitation 0.00 in 0.01 in - ()
Sea Level Pressure  
Sea Level Pressure 30.11 in    
Wind  
Wind Speed 10 mph ()    
Max Wind Speed 18 mph    
Max Gust Speed 22 mph    
Visibility 11.5 miles    
Events Snow    
Averages and records for this station are not official NWS values.
T = Trace of Precipitation, MM = Missing Value Source: Averaged Metar Reports

Daily Weather History Graph

Daily Weather History Graph

Search for Another Location

Airport or City:

Trip Planner

Search our weather history database for the weather conditions in past years. The results will help you decide how hot, cold, wet, or windy it might be!

Date:

Astronomy

Feb. 02, 2013 Rise Set
Actual Time 7:54 AM MST 5:19 PM MST
Civil Twilight 7:19 AM MST 5:54 PM MST
Nautical Twilight 6:41 AM MST 6:33 PM MST
Astronomical Twilight 6:03 AM MST 7:10 PM MST
Moon 12:12 AM MST (2/2) 10:21 AM MST (2/2)
Length of Visible Light 10h 34m
Length of Day
9h 25m
Waning Gibbous, 59% of the Moon is Illuminated
Feb 2
Waning Gibbous
Feb 3
Last Quarter
Feb 10
New
Feb 17
First Quarter
Feb 25
Full

Hourly Weather History & Observations

Time (MST) Temp. Windchill Dew Point Humidity Pressure Visibility Wind Dir Wind Speed Gust Speed Precip Events Conditions
12:00 AM 32.0 °F 22.1 °F 26.6 °F 80% 30.17 in 9.0 mi West 13.8 mph - N/A   Overcast
1:00 AM 32.0 °F 23.0 °F 24.8 °F 75% 30.17 in 9.0 mi WSW 11.5 mph - N/A   Overcast
2:00 AM 32.0 °F 23.6 °F 24.8 °F 75% 30.16 in 9.0 mi South 10.4 mph - N/A   Overcast
3:00 AM 32.0 °F 23.0 °F 24.8 °F 75% 30.19 in 9.0 mi SW 11.5 mph - N/A   Overcast
3:52 AM 33.8 °F 24.8 °F 24.8 °F 70% 30.21 in 9.0 mi WNW 12.7 mph - N/A   Overcast
4:00 AM 35.6 °F 26.2 °F 24.8 °F 65% 30.21 in 9.0 mi WNW 15.0 mph 21.9 mph N/A   Overcast
5:00 AM -31 °F - -37 °F 55% 29.55 in - NNW 17.3 mph - -  
5:00 AM 35.6 °F 26.6 °F 26.6 °F 70% 30.23 in 9.0 mi WNW 13.8 mph - N/A   Overcast
5:45 AM 33.8 °F 26.4 °F 28.4 °F 81% 30.24 in 15.0 mi West 9.2 mph - N/A Snow Light Snow Showers
6:00 AM 35.6 °F 28.0 °F 28.4 °F 75% 30.25 in 15.0 mi WNW 10.4 mph - N/A Snow Light Snow
6:27 AM 35.6 °F 26.6 °F 28.4 °F 75% 30.26 in 15.0 mi West 13.8 mph - N/A   Overcast
7:00 AM 35.6 °F 27.5 °F 28.4 °F 75% 30.26 in 15.0 mi West 11.5 mph - N/A   Mostly Cloudy
8:00 AM 35.6 °F 28.0 °F 28.4 °F 75% 30.28 in 30.0 mi West 10.4 mph - N/A   Mostly Cloudy
9:00 AM 35.6 °F 28.6 °F 28.4 °F 75% 30.30 in 30.0 mi West 9.2 mph - N/A   Mostly Cloudy
10:00 AM 35.6 °F 29.2 °F 30.2 °F 81% 30.30 in 30.0 mi West 8.1 mph - N/A   Overcast
11:00 AM -32 °F - -38 °F 57% 29.49 in - NNW 18.4 mph - -  
11:00 AM 35.6 °F 28.6 °F 30.2 °F 81% 30.31 in - WSW 9.2 mph - N/A   Overcast
12:00 PM 35.6 °F 29.2 °F 30.2 °F 81% 30.30 in 30.0 mi WSW 8.1 mph - N/A   Mostly Cloudy
1:00 PM 37.4 °F 31.4 °F 32.0 °F 81% 30.27 in 30.0 mi SSW 8.1 mph - N/A   Mostly Cloudy
2:00 PM 39.2 °F 33.0 °F 32.0 °F 75% 30.23 in 30.0 mi SSW 9.2 mph - N/A   Scattered Clouds
3:00 PM 41.0 °F 34.7 °F 32.0 °F 70% 30.22 in 30.0 mi SSW 10.4 mph - N/A   Partly Cloudy
5:00 PM -30 °F - -36 °F 59% 29.46 in - WNW 12.7 mph - -  
5:00 PM 37.4 °F 31.4 °F 30.2 °F 75% 30.15 in 30.0 mi SSW 8.1 mph - N/A   Mostly Cloudy
6:00 PM 33.8 °F 27.7 °F 30.2 °F 87% 30.14 in 15.0 mi SW 6.9 mph - N/A   Mostly Cloudy
7:00 PM 33.8 °F 26.4 °F 28.4 °F 81% 30.13 in 15.0 mi SW 9.2 mph - N/A   Scattered Clouds
8:00 PM 32.0 °F 24.8 °F 28.4 °F 87% 30.12 in 15.0 mi SW 8.1 mph - N/A   Scattered Clouds
9:00 PM 30.2 °F 24.3 °F 26.6 °F 86% 30.09 in 9.0 mi SW 5.8 mph - N/A   Mostly Cloudy
10:00 PM 30.2 °F 23.4 °F 26.6 °F 86% 30.07 in 9.0 mi SSW 6.9 mph - N/A   Overcast
11:00 PM -32 °F - -39 °F 53% 29.43 in - East 1.2 mph - -  
11:00 PM 32.0 °F 25.6 °F 26.6 °F 80% 30.04 in 9.0 mi South 6.9 mph - N/A   Overcast